Regional Weather Roundup
Issued by NWS Kansas City/Pleasant Hill, MO

Home | Current Version | Previous Version | Text Only | Print | Product List | Glossary On
Versions: 1 2 3 4 5 6 7 8 9 10 11 12 13 14 15 16 17 18 19 20 21 22 23 24 25 26 27 28 29 30 31 32 33 34 35 36 37 38 39 40 41 42 43 44 45 46 47 48 49 50
000
ASUS43 KEAX 161110
RWREAX

WEATHER ROUNDUP FOR EASTERN KANSAS AND NORTHWEST MISSOURI
NATIONAL WEATHER SERVICE KANSAS CITY/PLEASANT HILL MO
500 AM CST TUE JAN 16 2018

KSZ040-057-103>105-MOZ028-029-037-043-161200-
...KANSAS CITY METROPOLITAN AREA...

CITY           SKY/WX    TMP DP  RH WIND       PRES   REMARKS
K.C. INTL      CLEAR     -5 -11  75 NW8       30.70S WCI -20
K.C. DOWNTOWN  CLEAR      0 -10  63 NW12      30.74S WCI -17
LEES SUMMIT    CLEAR     -3 -10  72 NW12      30.69S WCI -21
OLATHE - IXD   CLEAR     -3  -9  75 NW10      30.71S WCI -20
OLATHE - OJC   CLEAR     -4 -10  75 NW10      30.69S WCI -21
LAWRENCE       CLEAR     -5 -11  75 W6        30.74S WCI -18

$$

MOZ001>008-011>017-020>025-030>033-038>040-044>046-053-054-161200-
...NORTHERN AND CENTRAL MISSOURI...

CITY           SKY/WX    TMP DP  RH WIND       PRES   REMARKS
ST. JOSEPH       N/A    N/A N/A N/A MISG      30.74R
MOSBY            N/A      0  -9  65 NW8       30.72S WCI -15
WARRENSBURG    PTCLDY    -4  -9  77 W8        30.70S WCI -19
WHITEMAN AFB   CLEAR     -3 -12  65 NW9       30.64S WCI -19
CLINTON        CLEAR     -2  -9  71 NW6       30.71R WCI -14
SEDALIA        PTCLDY    -2  -8  76 NW8       30.67S WCI -17
WARSAW         NOT AVBL
CHILLICOTHE      N/A     -3 -12  65 NW9       30.69S WCI -19
KIRKSVILLE     CLEAR     -6 -10  83 NW12      30.61R WCI -25

$$

MOZ041-047>049-056>058-063>065-088>090-097-161200-
...EASTERN AND SOUTHERN MISSOURI...

CITY           SKY/WX    TMP DP  RH WIND       PRES   REMARKS
ST. LOUIS INTL PTCLDY     1  -7  68 W16       30.62S WCI -19
SPIRIT OF STL  CLEAR      1  -8  66 W12       30.65R WCI -16
COLUMBIA       PTCLDY    -3 -10  72 W9        30.63S WCI -19
JEFFERSON CITY PTCLDY    -1 -10  65 W9        30.69R WCI -16
ROLLA          PTCLDY    -3  -9  75 W10       30.61R WCI -20
OSAGE BEACH    CLOUDY    -2  -9  72 NW9       30.67S WCI -18
SPRINGFIELD    CLOUDY    -3 -10  72 NW6       30.64R WCI -15
BRANSON        CLOUDY     0  -6  78 NW9       30.66R WCI -16
JOPLIN         CLOUDY    -1  -8  72 NW9       30.72R WCI -16
WEST PLAINS    CLOUDY     1  -8  66 NW7       30.62R WCI -12

$$

IAZ060-094-KSZ022-034>040-054-083-096-NEZ052-066-093-161200-
...KANSAS...SOUTHEAST NEBRASKA AND IOWA...

CITY           SKY/WX    TMP DP  RH WIND       PRES   REMARKS
TOPEKA         CLEAR     -1  -8  72 W8        30.76S WCI -15
MANHATTAN      PTCLDY    -2  -8  76 W3        30.77S
EMPORIA        CLEAR      0  -7  72 NW13      30.73S WCI -18
CHANUTE        CLEAR      1  -7  68 N9        30.74S WCI -14
WICHITA        CLEAR      4  -4  69 N14       30.75S WCI -14
OMAHA          LGT SNOW   0  -7  72 NW20      30.73R WCI -22
LINCOLN        CLOUDY     0  -8  69 N13       30.75S WCI -18
FALLS CITY     PTCLDY    -3 -10  72 NW10      30.73R WCI -20
LAMONI         CLOUDY    -5 -12  72 NW15      30.62S WCI -26
DES MOINES     FLURRIES  -3 -11  68 NW14G23   30.65R WCI -22

$$




USA.gov is the U.S. government's official web portal to all federal, state and local government web resources and services.